Find Geely Xingzuo 05 zu 11 xing

NORAD ID: 65560 Int'l Des: 2025-201 Owner: GEESP Country: CN Constellation: geesatcom operational
LEOCIRCULAR

实时位置

正在加载3D地球...

关于 Geely Xingzuo 05 zu 11 xing

正在加载描述...

即将过境

Passes for default location (London). Set your location on the main map for personalized predictions.

高度历史

Loading altitude history...

两行轨道根数

1 65560U 25201L 26121.67866094 .00002386 00000-0 31033-3 0 9992
2 65560 49.9868 254.5994 0008936 164.7087 195.4123 14.84011813 34918
Epoch: May 1, 2026 • Age: 9 hours

当前状态

高度 618.8 km
速度 7.56 km/s
星下点 48.13°N, 131.79°E
发射日期 Sep 8, 2025
运行时间 0.6 years
类型 other

技术详情

分类 Payload
质量 130.00 kg
干质量 130.00 kg
总质量 130.00 kg
长度 1.00 m
直径 0.50 m
跨度 2.00 m
形状 Box + 2 pan
制造商 GWCG
平台类型 GPS100
阶段状态 In Orbit
所有者/国家 GEESP/CN

Most Searched